Weather History for Belize, Belize

Change the Weather History Date:

Thursday, September 29, 2011

  Actual Average Record
Temperature  
Mean Temperature 84 °F -  
Max Temperature 89 °F 87 °F 91 °F (1998)
Min Temperature 78 °F 73 °F 75 °F (2000)
Cooling Degree Days 18    
Growing Degree Days 34 (Base 50)    
Moisture  
Dew Point 77 °F    
Average Humidity 78    
Maximum Humidity 94    
Minimum Humidity 61    
Precipitation  
Precipitation 0.12 in 0.34 in - ()
Sea Level Pressure  
Sea Level Pressure 29.84 in    
Wind  
Wind Speed 3 mph ()    
Max Wind Speed 9 mph    
Max Gust Speed -    
Visibility 8.3 miles    
Events Thunderstorm    
Averages and records for this station are not official NWS values.
T = Trace of Precipitation, MM = Missing Value Source: Averaged Metar Reports

Daily Weather History Graph

Daily Weather History Graph

Search for Another Location

Airport:

Trip Planner

Search our weather history database for the weather conditions in past years. The results will help you decide how hot, cold, wet, or windy it might be!

Date:

Astronomy

Sep. 29, 2011 Rise Set
Actual Time 5:43 AM CST 5:43 PM CST
Civil Twilight 5:21 AM CST 6:05 PM CST
Nautical Twilight 4:56 AM CST 6:30 PM CST
Astronomical Twilight 4:31 AM CST 6:55 PM CST
Moon 7:53 AM CST (9/29) 7:33 PM CST (9/29)
Length of Visible Light 12h 43m
Length of Day
12h 00m
Waxing Crescent, 8% of the Moon is Illuminated
Sep 29
Waxing Crescent
Oct 3
First Quarter
Oct 11
Full
Oct 19
Last Quarter
Oct 26
New

Hourly Weather History & Observations

Time (CST) Temp. Heat Index Dew Point Humidity Pressure Visibility Wind Dir Wind Speed Gust Speed Precip Events Conditions
12:00 AM 82 °F - 78 °F 83% 29.86 in 12 mi ESE 3.5 mph - -  
12:00 AM 82.4 °F 90.9 °F 77.0 °F 84% 29.86 in 6.2 mi ESE 3.5 mph - N/A   Mostly Cloudy
3:00 AM 80 °F - 78 °F 93% 29.84 in 12 mi Calm Calm - -   Scattered Clouds
3:00 AM 80.6 °F 88.1 °F 78.8 °F 94% 29.83 in 6.2 mi Calm Calm - N/A   Mostly Cloudy
6:00 AM 79 °F - 76 °F 89% 29.85 in 12 mi Calm Calm - -  
6:00 AM 78.8 °F - 77.0 °F 94% 29.83 in 6.2 mi Calm Calm - N/A   Mostly Cloudy
7:00 AM 80.6 °F 87.1 °F 77.0 °F 89% 29.86 in 6.2 mi NNW 5.8 mph - N/A   Mostly Cloudy
8:00 AM 82.4 °F 90.9 °F 77.0 °F 84% 29.86 in 6.2 mi NNW 5.8 mph - N/A   Mostly Cloudy
9:00 AM 85 °F - 77 °F 72% 29.89 in 12 mi North 5.8 mph - -   Scattered Clouds
9:00 AM 86.0 °F 96.9 °F 77.0 °F 74% 29.88 in 6.2 mi North 5.8 mph - N/A   Mostly Cloudy
10:00 AM 87.8 °F 99.7 °F 77.0 °F 70% 29.88 in 6.2 mi NE 6.9 mph - N/A   Mostly Cloudy
11:00 AM 87.8 °F 99.7 °F 77.0 °F 70% 29.87 in 6.2 mi East 4.6 mph - N/A   Mostly Cloudy
12:00 PM 88 °F - 76 °F 61% 29.85 in 12 mi NE 8.1 mph - -  
12:00 PM 87.8 °F 99.7 °F 77.0 °F 70% 29.84 in 6.2 mi NE 8.1 mph - N/A Thunderstorm Thunderstorm
1:00 PM 89.6 °F 102.2 °F 77.0 °F 66% 29.81 in 6.2 mi East 6.9 mph - N/A   Mostly Cloudy
2:00 PM 89.6 °F 102.2 °F 77.0 °F 66% 29.78 in 6.2 mi East 8.1 mph - N/A   Mostly Cloudy
3:00 PM 87.8 °F 99.7 °F 77.0 °F 70% 29.77 in 6.2 mi East 9.2 mph - N/A   Mostly Cloudy
4:00 PM 86.0 °F 99.3 °F 78.8 °F 79% 29.77 in 6.2 mi East 5.8 mph - N/A   Mostly Cloudy
5:00 PM 86.0 °F 99.3 °F 78.8 °F 79% 29.79 in 6.2 mi East 5.8 mph - N/A   Mostly Cloudy
6:00 PM 84 °F - 77 °F 74% 29.79 in 16 mi East 4.6 mph - -  
6:00 PM 84.2 °F 94.1 °F 77.0 °F 79% 29.79 in 6.2 mi East 4.6 mph - N/A   Mostly Cloudy
9:00 PM 84 °F - 77 °F 74% 29.86 in 16 mi Calm Calm - -   Scattered Clouds
9:00 PM 84.2 °F 94.1 °F 77.0 °F 79% 29.85 in 6.2 mi Calm Calm - N/A   Scattered Clouds